Location: Sunnyvale
(37.3814°N, 122.0645°W)
Time: 18:30:27
(UTC-08:00)

BlueWalker 3 - Pass Details

Date: 20 December 2025
Orbit: 452 x 463 km, 53.2° (Epoch: 13 January)

Event Time Altitude Azimuth Distance (km) Brightness Sun altitude
Rises 05:57:06 0° 210° (SSW) 2,443 5.3 -15.7°
Reaches altitude 10° 05:59:17 10° 203° (SSW) 1,576 4.4 -15.2°
Maximum altitude 06:02:39 41° 132° (SE) 666 3.1 -14.6°
Drops below altitude 10° 06:06:02 10° 61° (ENE) 1,591 5.1 -14.0°
Sets 06:08:15 0° 54° (NE) 2,470 6.0 -13.6°
